Location: Newark
(59.8814°N, 10.8258°E)
Time: 04:40:16
(UTC+00:00)

Envisat - Pass Details

Date: 01 February 2020
Orbit: 764 x 766 km, 98.1° (Epoch: 27 February)

Event Time Altitude Azimuth Distance (km) Brightness Sun altitude
Rises 18:12:00 0° 206° (SSW) 3,228 6.6 -19.9°
Reaches altitude 10° 18:14:47 10° 221° (SW) 2,306 6.0 -20.3°
Maximum altitude 18:18:44 23° 273° (W) 1,614 5.5 -20.8°
Drops below altitude 10° 18:22:44 10° 324° (NW) 2,318 6.0 -21.3°
Sets 18:25:33 0° 339° (NNW) 3,249 6.6 -21.6°
